Temp
20 20 19 19 18 18 18 17 17 17 17 18 18 17 17 18 18 18 18 18 17 17 17 18 18 18 18 18 18 18 18 18 19 17 17 17 17 17 17 17 17 17 18
20 19 19 19 18 18 18 17 17 17 17 17 17 17 17 17 17 17 18 17 17 17 17 17 17 17 18 18 17 17 17 17 17 17 16 16 16 15 15 16 16 16 16
20 20 19 19 19 18 17 17 17 17 16 16 16 16 16 16 17 17 17 17 17 17 17 17 17 17 17 17 17 17 17 17 17 16 16 16 15 14 14 14 15 15 16
20 20 20 19 19 18 17 17 16 16 16 16 16 16 16 16 16 15 16 16 16 16 16 16 16 16 16 16 16 16 16 16 16 16 15 15 15 14 14 14 13 13 13
20 20 20 19 18 17 17 16 16 16 15 16 16 15 15 15 15 15 15 14 15 15 15 15 14 15 15 15 15 15 15 15 15 15 15 15 15 14 14 13 11 11 10
20 21 20 19 18 17 16 16 15 15 15 15 15 15 14 14 15 15 15 14 14 14 13 13 14 14 14 14 14 15 15 15 14 14 14 13 11 12 12 13 11 11 11
19 20 19 19 18 17 16 15 15 14 14 14 14 14 13 13 15 15 15 13 13 12 12 12 13 13 13 13 13 14 13 13 14 14 12 11 11 12 12 12 11 11 10
17 18 19 18 18 16 15 15 14 14 14 14 14 14 14 13 14 14 14 13 12 12 12 12 12 12 11 12 12 11 11 10 11 11 10 11 11 11 12 11 11 10 9
15 15 17 17 17 15 15 14 13 13 13 13 14 14 14 13 13 14 13 12 12 12 11 12 12 11 12 11 12 11 11 11 11 11 11 11 11 11 11 12 11 13 13
13 14 16 17 17 15 14 13 12 13 13 13 12 12 13 13 13 14 13 13 12 12 11 11 12 12 12 12 12 12 12 11 11 11 11 10 10 10 11 10 12 12 13
12 13 15 15 15 14 13 12 11 11 11 11 11 10 11 12 12 12 13 11 11 11 11 10 10 11 11 12 11 10 10 10 10 10 11 11 10 10 10 9 9 11 11
12 12 12 12 13 12 12 11 11 10 10 9 9 10 10 11 11 11 12 12 11 11 9 10 10 10 10 10 10 10 10 11 11 11 11 11 11 10 10 9 8 9 9
11 10 10 10 11 11 10 9 9 9 8 8 9 8 8 9 10 11 11 11 11 10 9 9 9 10 10 10 10 10 10 11 11 11 11 10 9 9 9 9 9 8 8
9 9 9 9 9 9 9 9 10 10 9 9 8 7 7 8 9 9 9 9 9 9 9 9 9 9 9 9 10 10 10 10 10 10 10 9 9 9 9 9 10 10 10
8 8 8 8 8 8 8 8 8 9 9 9 8 8 8 7 8 9 9 9 9 9 9 10 10 10 10 10 9 9 9 9 9 9 9 9 9 9 9 9 9 10 10
9 9 8 7 8 7 7 7 8 8 8 8 8 9 8 8 8 9 9 9 9 9 10 10 10 10 9 9 9 9 9 9 9 9 9 9 9 9 9 9 9 9 10
10 10 9 9 8 7 8 8 6 7 8 8 8 8 8 8 9 9 9 9 9 9 10 10 9 9 9 9 9 9 9 8 7 8 8 8 8 8 9 9 9 9 9
9 9 11 11 11 10 10 10 10 10 10 8 7 7 8 8 9 9 9 9 9 9 10 9 9 8 8 8 8 9 8 8 8 8 8 8 8 8 8 8 8 9 9
11 11 10 10 10 10 10 10 10 10 10 9 8 8 8 9 9 9 9 11 11 10 10 9 9 8 8 8 7 7 8 8 8 8 8 8 7 8 8 8 8 7 7
10 11 11 11 11 11 11 11 11 10 10 10 10 10 9 9 10 10 10 10 10 10 9 9 8 8 8 7 8 8 8 7 7 8 7 7 7 7 7 7 8 8 8
12 11 12 12 12 12 12 12 11 11 11 10 10 10 9 10 11 11 11 10 10 10 9 9 9 8 8 7 8 8 8 8 7 7 7 7 7 7 7 7 7 8 8
12 12 12 13 12 12 12 11 11 11 11 11 11 10 9 9 11 11 10 10 10 9 9 8 9 9 9 8 8 8 8 8 7 7 7 7 6 7 6 7 7 7 8
13 13 13 13 12 12 11 12 11 11 11 11 11 11 10 10 10 10 11 10 9 9 8 8 8 9 8 8 8 8 8 8 7 7 7 6 6 6 6 7 7 7 8
13 14 14 14 13 13 13 13 12 11 12 12 12 11 11 11 11 11 10 10 9 9 8 8 8 9 8 8 7 7 7 7 6 6 6 6 6 6 6 6 7 7 7
13 13 14 15 15 15 14 13 13 13 12 12 12 12 12 12 11 11 11 10 10 9 9 8 8 8 8 8 8 7 7 6 5 5 5 5 5 5 6 6 6 7 6
14 14 13 14 14 14 13 12 12 12 12 12 12 12 12 12 12 12 11 10 10 10 10 9 9 8 8 8 8 7 7 6 6 5 5 5 5 5 5 6 6 6 6
Height
806 808 810 811 810 808 808 807 805 804 802 799 797 797 797 796 796 797 798 799 801 803 804 806 808 809 811 812 814 814 815 814 814 817 817 817 817 816 816 817 817 818 817
806 808 810 810 811 810 809 808 806 805 803 802 800 798 798 797 798 798 799 800 801 802 804 804 806 807 808 810 810 811 812 812 813 812 816 814 815 817 816 817 817 818 817
805 808 808 808 811 810 811 810 808 807 806 805 804 802 801 800 800 799 800 801 802 803 804 805 806 806 806 807 807 808 810 810 812 813 813 813 814 816 816 817 817 818 817
804 804 807 808 812 812 812 811 810 810 809 808 808 806 806 805 804 804 804 804 804 804 803 805 805 807 804 807 809 808 809 809 811 812 813 814 815 816 817 816 819 818 818
804 804 806 809 811 812 813 812 812 812 811 810 811 810 810 809 808 808 808 808 809 809 809 809 809 810 809 810 810 810 810 811 814 814 815 816 817 817 818 818 819 821 822
804 804 805 808 810 812 812 813 814 812 812 813 813 813 812 812 812 812 812 813 813 813 813 813 813 813 814 814 814 814 814 815 815 816 818 819 821 820 820 819 820 823 825
803 804 804 806 808 809 811 813 814 813 813 813 814 815 815 815 815 815 815 816 816 817 817 817 816 816 817 817 817 816 816 817 817 819 820 822 823 822 822 821 822 823 826
801 802 802 804 806 807 811 814 813 814 814 814 816 817 817 818 820 819 818 819 819 820 821 821 822 822 823 823 823 822 822 823 824 824 825 825 825 824 824 824 824 825 828
801 799 799 801 803 806 809 813 814 815 816 817 818 819 820 820 822 821 821 822 823 824 825 826 826 827 828 828 827 828 829 830 830 830 830 829 829 828 827 828 829 828 829
801 799 797 798 800 803 807 812 814 816 817 818 819 821 822 822 824 823 823 823 826 828 829 829 830 830 831 831 831 831 832 834 835 836 836 834 833 832 830 830 831 831 831
801 798 797 798 799 800 805 809 812 814 816 816 818 822 823 824 824 826 825 825 827 829 831 833 833 834 833 832 832 833 834 836 837 838 838 838 837 836 835 834 834 835 835
801 800 800 799 800 802 805 808 812 814 817 818 820 821 823 824 826 827 827 827 829 830 832 835 837 837 837 836 834 836 837 838 839 840 840 840 839 839 839 839 838 838 838
802 803 803 803 803 805 807 809 812 814 817 821 819 823 825 824 826 827 830 830 832 834 836 838 841 840 840 839 839 839 840 841 841 842 843 843 842 841 841 841 841 841 841
804 805 807 808 809 810 811 814 815 816 818 820 824 826 826 828 830 833 833 834 835 838 841 843 843 843 842 843 843 843 843 844 845 845 845 845 844 843 843 843 843 843 842
807 810 811 812 812 814 815 818 819 821 822 822 825 827 829 833 833 836 835 837 839 840 844 846 846 847 845 845 846 846 846 847 847 848 847 846 846 846 846 845 845 844 844
812 815 816 815 816 818 819 821 821 824 823 826 827 828 831 835 835 837 838 841 841 843 845 846 848 848 846 847 848 848 849 849 849 849 849 848 848 848 847 847 847 846 845
815 818 820 822 823 822 823 824 827 829 829 830 832 833 836 837 838 837 839 842 844 845 846 847 849 848 848 848 849 849 850 850 850 850 850 850 849 849 848 848 847 847 847
818 821 824 824 824 825 826 828 830 831 834 836 837 838 840 841 841 842 842 843 845 846 847 847 848 850 850 850 850 850 851 851 850 851 851 851 851 850 849 849 849 849 848
824 824 826 826 826 827 830 832 833 834 836 838 840 842 842 843 844 845 845 846 845 846 847 847 848 849 850 851 850 850 850 850 850 851 852 852 851 850 850 849 849 849 849
825 825 828 829 830 831 833 834 835 835 837 839 840 842 843 844 845 846 846 847 846 845 847 846 848 849 849 850 849 849 849 850 850 851 851 852 851 850 849 849 848 847 847
827 828 829 831 832 833 835 835 836 837 838 839 841 842 843 844 844 844 845 845 846 844 846 845 846 847 848 848 848 848 848 848 849 850 850 851 850 849 848 847 847 846 846
828 829 830 831 832 833 834 835 836 837 838 838 840 841 842 842 844 842 843 844 844 844 844 844 844 844 844 845 846 846 846 846 847 848 849 849 848 847 846 846 846 845 845
828 829 830 831 831 831 832 833 834 835 836 836 837 838 838 839 839 840 840 840 841 842 842 842 841 841 841 842 843 843 843 843 844 845 846 846 846 845 845 844 844 843 843
828 828 828 828 828 829 829 829 830 830 832 832 832 833 833 835 835 836 836 837 839 839 839 839 838 838 839 840 840 840 840 840 841 842 843 843 843 843 842 842 842 842 842
826 826 826 826 826 825 824 825 825 825 826 827 827 827 828 829 830 830 832 833 834 835 834 834 834 835 835 836 837 837 836 836 838 838 839 840 840 840 839 839 839 839 839
825 826 825 825 824 822 821 820 820 821 822 823 824 824 824 824 825 825 826 826 827 828 828 829 829 830 831 832 832 833 833 833 834 834 836 836 836 836 836 836 836 836 836
Wind_Speed
5 2 2 1 2 4 6 7 7 8 9 8 7 4 4 4 4 5 6 6 8 7 9 10 10 10 10 12 13 11 9 6 4 3 2 1 2 3 5 5 5 3 2
5 4 4 1 2 3 4 5 6 6 8 8 10 9 7 2 1 3 1 1 2 3 5 7 7 8 11 11 12 10 10 9 7 8 6 5 4 5 8 8 7 7 7
7 5 4 3 2 2 2 4 6 7 9 10 10 12 12 11 9 7 6 7 6 5 4 2 1 5 8 12 11 11 9 8 12 9 8 5 5 10 12 11 10 8 9
8 8 7 5 4 2 2 4 7 8 10 12 12 14 14 13 12 11 11 11 11 10 8 7 7 7 9 7 4 2 4 8 7 8 8 6 7 5 5 8 7 9 10
9 9 9 7 6 4 4 6 7 8 9 10 10 12 13 14 13 14 14 15 16 16 16 15 14 11 10 9 7 8 7 7 6 5 5 4 6 6 6 2 6 10 11
12 12 10 10 10 8 9 7 7 9 10 10 11 11 12 11 8 8 9 11 12 13 14 13 11 9 9 8 7 6 5 4 4 3 6 8 7 6 5 2 10 5 3
11 14 12 12 14 12 12 10 8 9 10 12 11 11 12 13 11 12 12 12 13 12 11 12 14 15 15 16 16 16 16 12 9 9 11 7 8 8 5 6 5 6 4
5 9 14 15 15 16 12 11 10 9 10 13 12 12 11 13 10 10 11 13 15 15 15 15 15 15 16 17 19 22 23 21 19 18 17 14 13 12 10 8 10 13 11
5 5 8 17 17 17 15 12 10 10 10 10 12 11 11 11 9 9 13 14 16 16 15 14 14 14 13 15 15 18 18 19 21 22 22 21 19 14 9 6 6 2 6
4 5 6 17 23 21 17 14 10 10 12 12 12 11 12 12 9 8 12 13 14 15 15 16 15 14 11 12 11 12 15 13 12 13 14 16 16 18 18 16 10 7 4
3 3 5 13 18 22 20 14 14 13 14 17 15 11 11 11 9 6 8 12 13 14 13 13 14 13 13 13 13 13 15 13 13 12 12 13 14 15 15 14 13 11 8
6 6 6 8 13 17 17 17 16 15 14 14 16 17 14 13 10 8 10 13 15 18 16 16 14 13 14 15 17 15 14 11 10 10 11 12 13 12 12 11 11 10 10
9 10 10 10 12 14 16 17 15 15 15 11 19 15 15 17 15 14 15 16 15 17 17 17 16 16 16 16 14 13 11 9 9 10 11 11 11 10 8 8 9 9 9
12 12 11 13 15 15 14 13 14 15 16 17 14 14 13 15 15 16 16 15 16 15 15 13 14 15 15 14 12 13 12 11 10 10 9 9 9 9 9 7 8 6 6
12 11 13 14 16 17 16 13 11 10 12 16 15 13 12 11 13 13 14 15 15 14 13 9 7 8 10 10 10 9 9 8 9 8 8 8 8 8 8 6 7 6 6
12 9 10 13 17 18 20 19 16 12 11 10 12 12 12 15 16 14 13 12 13 12 7 6 6 7 7 7 6 6 6 6 7 7 8 8 8 7 6 5 6 6 6
13 13 12 12 12 13 14 15 16 16 15 14 12 15 15 15 12 12 13 13 10 6 6 7 6 5 5 4 3 4 5 7 7 7 7 7 6 5 4 5 5 4 4
14 15 13 13 13 12 11 10 10 10 10 10 10 11 10 9 10 13 11 10 8 6 6 7 5 3 3 3 4 5 6 7 6 5 6 6 5 4 3 3 3 4 3
14 14 14 14 14 13 11 10 10 9 8 9 8 7 7 7 9 9 9 4 5 5 5 6 5 5 4 3 4 3 4 4 4 3 3 3 4 3 2 1 1 2 3
14 16 13 12 11 10 9 9 9 8 7 7 6 6 5 5 6 8 7 6 4 4 5 5 6 5 5 3 4 3 4 5 5 4 2 0 2 2 1 1 2 3 1
11 10 10 8 7 6 5 5 5 5 4 5 5 6 6 3 5 5 6 7 6 5 7 7 7 8 7 6 4 3 2 3 5 5 5 3 2 3 2 2 2 2 2
7 6 4 3 3 3 3 3 4 4 5 5 6 8 10 7 7 6 7 8 6 6 7 8 8 9 9 8 7 6 5 4 5 7 7 6 5 4 3 4 3 3 4
5 5 4 5 6 7 8 9 9 10 9 9 8 9 10 12 11 11 10 9 10 9 9 8 8 8 8 8 8 8 8 9 9 9 9 8 7 6 5 6 5 5 5
7 8 8 9 9 10 11 12 12 13 12 12 12 12 12 13 14 14 12 11 11 12 11 10 9 10 9 8 7 8 9 9 9 9 10 9 8 7 7 7 7 6 6
10 11 11 12 12 13 12 13 13 11 11 11 13 14 14 15 15 15 15 14 14 13 12 11 11 13 14 12 10 8 8 9 8 10 9 9 9 8 9 9 8 7 7
1 3 6 8 9 9 9 8 9 8 9 11 13 15 16 17 18 17 16 16 17 17 16 15 15 16 15 15 15 14 13 10 9 10 9 9 8 9 10 11 9 7 7
Wind_Direction
163 160 157 13 6 28 23 16 24 18 18 31 22 349 308 308 254 216 227 210 222 229 242 246 244 235 227 223 226 229 225 221 243 201 227 131 90 119 125 136 139 132 121
173 184 177 175 348 37 31 28 34 32 38 41 48 54 58 69 58 27 81 104 197 235 244 246 247 234 232 225 222 220 224 224 223 211 206 165 166 171 140 129 103 82 70
182 201 200 203 265 61 42 60 60 58 62 58 57 57 61 64 72 80 90 92 93 93 87 104 262 246 220 211 203 201 221 235 236 227 206 204 144 144 119 106 95 85 77
199 209 221 218 243 201 127 103 89 83 81 75 68 68 62 63 66 73 84 88 89 86 87 83 82 87 85 95 86 89 195 171 129 108 95 83 92 126 139 120 95 90 90
220 221 225 215 211 189 172 135 115 104 87 82 77 73 72 71 72 79 82 83 87 89 89 88 84 87 90 94 92 73 82 94 107 97 88 79 62 58 32 86 103 106 85
232 230 219 209 196 186 187 152 137 118 103 91 81 80 78 72 79 87 92 90 88 85 83 82 83 81 77 75 78 76 70 76 69 71 60 70 43 35 35 85 144 125 106
240 234 222 206 195 185 184 165 152 133 119 107 94 85 81 79 77 81 89 89 83 79 80 84 84 81 83 83 83 84 81 82 87 99 90 80 58 43 58 85 135 121 104
255 240 220 206 192 184 172 176 157 142 133 127 114 104 98 87 82 84 96 93 88 83 81 81 82 80 87 88 84 77 72 70 72 76 76 78 75 69 72 96 108 104 95
292 273 226 201 183 178 173 173 159 141 126 125 122 118 112 103 95 94 100 100 96 88 85 85 86 87 87 92 90 90 86 79 76 82 82 81 76 73 79 92 69 28 97
298 295 234 205 201 182 173 165 149 137 130 129 126 120 120 115 107 113 112 112 107 101 92 84 88 91 92 96 93 98 95 90 93 86 74 67 63 61 64 61 56 61 82
31 61 165 192 190 184 170 159 152 144 139 141 129 120 119 117 112 120 125 119 120 115 106 96 90 89 90 94 99 104 107 106 96 85 75 65 59 54 53 56 59 61 71
73 80 106 148 165 166 161 153 153 141 138 136 131 127 119 114 113 121 130 127 125 120 108 103 97 92 90 90 92 101 101 95 91 80 70 60 53 49 49 53 60 65 69
91 88 96 117 136 147 150 146 139 137 131 129 133 124 122 120 122 123 126 125 124 115 110 105 105 98 92 86 92 95 86 85 85 79 70 60 51 48 55 55 54 65 77
97 96 102 111 116 121 129 137 137 142 146 143 131 125 123 122 125 127 125 119 116 109 109 112 105 96 93 89 82 78 80 85 84 80 69 59 54 53 56 55 56 58 68
101 104 109 116 115 116 113 112 119 127 146 148 148 137 130 129 137 139 130 129 130 130 126 124 108 102 90 82 77 81 86 85 79 72 67 56 49 50 56 57 49 47 50
111 109 116 114 116 117 113 103 98 108 122 135 141 143 139 138 132 132 132 133 134 140 132 130 122 106 93 82 80 85 87 91 87 80 61 48 43 45 58 55 44 43 46
114 115 112 113 114 107 102 100 99 92 99 106 118 129 135 138 137 132 130 130 132 132 139 128 127 116 97 88 88 96 114 112 102 83 60 51 51 59 52 52 44 40 41
115 119 116 110 104 101 101 103 108 112 116 109 121 127 133 133 132 135 134 123 122 125 137 135 136 131 124 124 127 120 126 128 114 97 70 63 57 51 60 58 46 23 12
118 112 108 103 101 102 99 98 100 108 117 127 133 131 141 144 154 155 148 154 145 150 159 150 152 151 147 147 151 160 172 161 151 132 94 64 43 29 53 34 21 359 317
116 116 107 104 105 105 106 106 106 108 122 138 155 155 159 156 172 193 203 208 202 197 206 189 183 180 177 165 165 169 188 197 194 195 189 326 10 5 348 311 343 338 296
125 126 123 112 110 108 108 111 118 126 140 157 180 184 190 196 195 198 214 216 235 232 235 228 221 215 206 202 201 204 208 207 210 218 228 239 286 325 307 238 279 282 189
146 149 162 163 172 186 192 192 194 199 206 192 208 209 213 219 233 228 234 240 240 240 240 234 235 228 223 225 226 234 238 241 236 237 240 245 262 286 272 226 235 224 220
198 207 234 248 250 252 243 239 234 228 230 225 223 221 220 229 239 249 249 246 241 235 234 234 238 224 221 231 236 245 256 256 256 247 244 244 255 267 240 224 228 226 233
243 251 263 273 276 270 259 244 239 237 233 233 231 231 234 239 241 243 245 244 239 238 235 237 236 226 227 233 244 253 261 254 243 236 228 239 252 252 231 226 226 228 244
250 257 267 281 291 291 281 261 248 241 234 234 240 237 237 238 239 236 237 238 237 237 240 239 238 235 236 239 244 249 241 243 226 222 226 237 241 234 229 228 224 234 247
216 283 287 295 298 298 289 272 251 239 243 252 254 253 248 244 243 243 239 234 234 239 238 238 240 239 239 242 242 238 239 240 239 233 225 231 235 234 227 223 221 240 237